[[{"header":{"parameterUnit":"m.s-1","parameterCategory":1,"la1":30.2991,"la2":30.254,"lo1":-89.0895,"lo2":-89.0444,"dy":0.0017,"dx":0.0017,"nx":28,"ny":28,"refTime":"2024-02-01T09:00:00:Z","depth":0,"parameterNumber":2,"parameterNumberName":"U-component_of_WINDS"},"data":[0,0,0,0,0,0,0,0,0,0,0,0,0,0,0,0,0,0,0,0,0,0,0,0,0,0,0,0,0,0,0,0,0,0,0,0,0,0,0,0,0,0,0,0,0,0,0,0,0,0,0,0,0,0,0,0,0,0,-0.6362,-0.6361,0,-0.6289,-0.6288,-0.6287,-0.6222,-0.6221,-0.622,-0.6219,-0.6145,-0.6144,-0.6142,0,0,0,0,0,0,0,0,0,0,0,0,0,-0.6445,-0.6444,-0.6362,-0.6361,-0.636,-0.6289,-0.6288,-0.6287,-0.6222,-0.6221,-0.622,-0.6219,-0.6145,-0.6144,-0.6142,0,0,0,0,0,0,0,0,0,0,0,0,0,-0.6394,-0.6443,-0.6362,-0.6319,-0.6314,-0.6289,-0.6288,-0.6286,-0.6222,-0.6221,-0.622,-0.6219,-0.6146,-0.6144,-0.6142,-0.6154,0,0,-0.6136,-0.6135,0,0,0,0,0,0,0,0,-0.6397,-0.6391,-0.6326,-0.6322,-0.6317,-0.6263,-0.629,-0.6242,-0.6222,-0.6257,-0.6219,-0.6218,-0.6185,-0.618,-0.6169,-0.615,-0.6147,-0.6136,-0.6135,-0.6134,-0.6134,0,0,0,0,0,0,0,-0.6401,-0.6394,-0.6333,-0.6325,-0.6319,-0.6303,-0.6295,-0.628,-0.6228,-0.6254,-0.6249,-0.6241,-0.6182,-0.6171,-0.6167,-0.6146,-0.6136,-0.6134,-0.6133,-0.6133,-0.6133,-0.6135,0,0,0,0,0,0,-0.6411,-0.6397,-0.6335,-0.6331,-0.6355,-0.6303,-0.6293,-0.6281,-0.6228,-0.6219,-0.6242,-0.6238,-0.6175,-0.6169,-0.6164,-0.6174,-0.6134,-0.6132,-0.6131,-0.6132,-0.6134,-0.6135,0,0,0,0,0,0,-0.6413,-0.6406,-0.6338,-0.6363,-0.6353,-0.6302,-0.629,-0.6281,-0.6269,-0.622,-0.621,-0.624,-0.6173,-0.6166,-0.6157,-0.6171,-0.6132,-0.613,-0.6131,-0.6133,-0.6134,-0.6196,0,0,0,0,0,0,-0.6416,-0.6407,-0.6411,-0.6363,-0.6352,-0.6332,-0.6291,-0.628,-0.6266,-0.626,-0.6215,-0.6206,-0.6172,-0.616,-0.6155,-0.6168,-0.6128,-0.6129,-0.6132,-0.6134,-0.6192,-0.6199,-0.6205,0,0,0,0,0,-0.6419,-0.6431,-0.6411,-0.6404,-0.6355,-0.6333,-0.6327,-0.6287,-0.6267,-0.6271,-0.6239,-0.6208,-0.617,-0.6159,-0.6153,-0.6166,-0.6128,-0.6131,-0.6134,-0.6189,-0.6198,-0.6205,0,0,0,0,0,0,-0.6482,-0.6424,-0.6402,-0.6399,-0.6371,-0.6322,-0.6326,-0.6297,-0.6275,-0.6271,-0.6222,-0.6212,-0.6208,-0.6186,-0.6175,-0.6174,-0.6145,-0.6146,-0.6189,-0.6197,-0.6204,-0.621,-0.6127,0,0,0,0,0,-0.6495,-0.6482,-0.6432,-0.6434,-0.6422,-0.6376,-0.6365,-0.6337,-0.6307,-0.6295,-0.6262,-0.6234,-0.6216,-0.6205,-0.6185,-0.6188,-0.6178,-0.6194,-0.62,-0.6206,-0.6208,-0.6209,-0.6215,-0.6144,-0.6143,-0.6143,0,0,-0.6523,-0.649,-0.6484,-0.6446,-0.6422,-0.641,-0.6367,-0.6356,-0.6346,-0.6293,-0.6282,-0.6258,-0.6223,-0.622,-0.6217,-0.6201,-0.6225,-0.6209,-0.6214,-0.6213,-0.6212,-0.6219,-0.6225,-0.6145,-0.6145,-0.6145,0,0,-0.6568,-0.6541,-0.654,-0.6517,-0.648,-0.645,-0.645,-0.6405,-0.6387,-0.6375,-0.6335,-0.6323,-0.6292,-0.6269,-0.6254,-0.629,-0.6261,-0.6285,-0.632,-0.6321,-0.6327,-0.6332,-0.6346,-0.6351,-0.6287,-0.6287,-0.6287,0,-0.6607,-0.6587,-0.6544,-0.6535,-0.652,-0.647,-0.647,-0.6449,-0.6408,-0.6399,-0.6381,-0.6342,-0.6315,-0.6307,-0.6316,-0.6304,-0.6303,-0.6291,-0.6329,-0.6334,-0.6338,-0.635,-0.6356,-0.6291,-0.629,-0.629,-0.629,0,-0.6638,-0.6624,-0.6628,-0.659,-0.6575,-0.657,-0.6527,-0.6516,-0.6489,-0.6461,-0.645,-0.6416,-0.6389,-0.6385,-0.6358,-0.6372,-0.6364,-0.6338,-0.6308,-0.6349,-0.636,-0.6364,-0.6295,-0.6294,-0.6293,-0.6292,0,0,-0.6721,-0.6659,-0.6661,-0.6643,-0.66,-0.6589,-0.6582,-0.6555,-0.6548,-0.6521,-0.6515,-0.649,-0.6467,-0.6449,-0.6419,-0.642,-0.6452,-0.6395,-0.6393,-0.6408,-0.6467,-0.6487,-0.6494,-0.6432,-0.6433,-0.6434,-0.6471,0,-0.6759,-0.6744,-0.6705,-0.6702,-0.669,-0.6643,-0.6637,-0.661,-0.6583,-0.6569,-0.6539,-0.6523,-0.6492,-0.6482,-0.648,-0.6449,-0.6464,-0.6445,-0.6427,-0.6426,-0.6438,-0.6499,-0.652,-0.6557,-0.6475,-0.6475,-0.6476,0,-0.6802,-0.6779,-0.6775,-0.6732,-0.6726,-0.6721,-0.6694,-0.6681,-0.6649,-0.6629,-0.661,-0.6577,-0.6567,-0.6539,-0.6525,-0.6514,-0.6503,-0.6487,-0.6487,-0.6485,-0.6455,-0.65,-0.6568,-0.6574,-0.6482,-0.6482,-0.6481,0,-0.6865,-0.6832,-0.6826,-0.6812,-0.6762,-0.676,-0.6739,-0.6705,-0.6692,-0.6669,-0.666,-0.6635,-0.6622,-0.6604,-0.6565,-0.6548,-0.6557,-0.6524,-0.6541,-0.6542,-0.6546,-0.6546,-0.6614,-0.6537,-0.6537,-0.6537,-0.6537,0,-0.6912,-0.6912,-0.6853,-0.685,-0.6848,-0.6803,-0.6803,-0.6777,-0.6748,-0.6739,-0.6696,-0.6689,-0.6637,-0.6624,-0.6593,-0.6588,-0.6582,-0.6566,-0.6558,-0.657,-0.6573,-0.6564,-0.6561,-0.6538,-0.6538,-0.6538,-0.6538,0,-0.6983,-0.6943,-0.6933,-0.6886,-0.6874,-0.6876,-0.6835,-0.683,-0.6801,-0.679,-0.6784,-0.6738,-0.672,-0.6679,-0.665,-0.6629,-0.6632,-0.6617,-0.6643,-0.6638,-0.6657,-0.6656,-0.6723,-0.673,-0.6648,-0.6649,-0.6649,0,-0.7016,-0.7015,-0.6968,-0.6959,-0.694,-0.6925,-0.6912,-0.6867,-0.6855,-0.6818,-0.6818,-0.6796,-0.6777,-0.675,-0.6714,-0.6691,-0.6676,-0.6701,-0.6672,-0.6685,-0.6678,-0.6679,-0.6679,-0.6708,-0.6709,-0.671,-0.671,0,-0.7081,-0.7061,-0.7043,-0.7019,-0.7004,-0.6982,-0.6958,-0.6953,-0.6903,-0.6891,-0.6872,-0.6857,-0.6827,-0.6807,-0.6779,-0.6757,-0.6726,-0.6719,-0.6722,-0.6736,-0.6751,-0.6744,-0.6661,-0.6718,-0.6718,-0.6717,-0.6717,-0.6716,-0.7134,-0.7132,-0.7098,-0.708,-0.7057,-0.7036,-0.7029,-0.6999,-0.6982,-0.6955,-0.6929,-0.6913,-0.6881,-0.684,-0.682,-0.6807,-0.6791,-0.6795,-0.6796,-0.6798,-0.6804,-0.6752,-0.6802,-0.6801,-0.6801,-0.6801,-0.6801,0,-0.7198,-0.7174,-0.7158,-0.7126,-0.7111,-0.7083,-0.7055,-0.7045,-0.7031,-0.7004,-0.6986,-0.6964,-0.6944,-0.6906,-0.6883,-0.688,-0.6865,-0.6875,-0.6876,-0.6871,-0.6819,-0.682,-0.6888,-0.6888,-0.6888,-0.6888,-0.6888,-0.6888,-0.7229,-0.7223,-0.72,-0.7182,-0.7158,-0.7142,-0.7129,-0.7109,-0.7087,-0.7066,-0.7049,-0.7024,-0.6993,-0.6967,-0.6947,-0.6936,-0.693,-0.6946,-0.6931,-0.6883,-0.6875,-0.6867,-0.6867,-0.6945,-0.6945,-0.6984,-0.6985,-0.6985]},{"header":{"parameterUnit":"m.s-1","parameterCategory":1,"la1":30.2991,"la2":30.254,"lo1":-89.0895,"lo2":-89.0444,"dy":0.0017,"dx":0.0017,"nx":28,"ny":28,"refTime":"2024-02-01T09:00:00:Z","depth":0,"parameterNumber":3,"parameterNumberName":"V-component_of_WINDS"},"data":[0,0,0,0,0,0,0,0,0,0,0,0,0,0,0,0,0,0,0,0,0,0,0,0,0,0,0,0,0,0,0,0,0,0,0,0,0,0,0,0,0,0,0,0,0,0,0,0,0,0,0,0,0,0,0,0,0,0,0.1097,0.1097,0,0.106,0.1059,0.1059,0.102,0.1019,0.1019,0.1018,0.0978,0.0978,0.0977,0,0,0,0,0,0,0,0,0,0,0,0,0,0.1133,0.1133,0.1097,0.1097,0.1096,0.106,0.1059,0.1059,0.102,0.1019,0.1019,0.1018,0.0978,0.0978,0.0977,0,0,0,0,0,0,0,0,0,0,0,0,0,0.1109,0.1132,0.1097,0.1073,0.107,0.106,0.1059,0.1059,0.102,0.1019,0.1019,0.1018,0.0979,0.0978,0.0977,0.0988,0,0,0.0974,0.0974,0,0,0,0,0,0,0,0,0.111,0.1107,0.1077,0.1074,0.1071,0.1044,0.1057,0.1035,0.102,0.1039,0.1018,0.1018,0.1001,0.0998,0.0993,0.0986,0.0984,0.0974,0.0974,0.0973,0.0973,0,0,0,0,0,0,0,0.1112,0.1109,0.1082,0.1076,0.1073,0.1063,0.1058,0.1053,0.1025,0.1037,0.1035,0.1031,0.0999,0.0993,0.0991,0.0984,0.0974,0.0973,0.0973,0.0973,0.0984,0.0985,0,0,0,0,0,0,0.1118,0.1111,0.1084,0.1081,0.1089,0.1063,0.1058,0.1053,0.1025,0.102,0.1031,0.1029,0.0995,0.0992,0.099,0.1001,0.0973,0.0973,0.0972,0.0983,0.0984,0.0985,0,0,0,0,0,0,0.1119,0.1116,0.1085,0.1095,0.109,0.1063,0.1058,0.1053,0.1048,0.102,0.1015,0.1031,0.0995,0.0991,0.0989,0.0999,0.0972,0.0971,0.0982,0.0983,0.0985,0.1024,0,0,0,0,0,0,0.112,0.1116,0.112,0.1096,0.109,0.1086,0.1059,0.1053,0.1047,0.1043,0.1019,0.1014,0.0994,0.099,0.0988,0.0997,0.0971,0.0981,0.0983,0.0984,0.1021,0.1026,0.103,0,0,0,0,0,0.1121,0.1132,0.1121,0.1118,0.1095,0.1086,0.1083,0.106,0.1048,0.1051,0.1034,0.1014,0.0998,0.099,0.0987,0.0997,0.098,0.0982,0.0984,0.1019,0.1025,0.103,0,0,0,0,0,0,0.1159,0.1129,0.1116,0.1119,0.1106,0.108,0.1084,0.1067,0.1056,0.1053,0.1025,0.102,0.1021,0.1008,0.1,0.1006,0.0986,0.0988,0.1014,0.102,0.1024,0.1027,0.097,0,0,0,0,0,0.1167,0.1163,0.1137,0.1143,0.1137,0.1112,0.1107,0.1091,0.1075,0.1069,0.1051,0.1036,0.1028,0.1023,0.1013,0.1019,0.1013,0.1024,0.1028,0.1032,0.1034,0.1036,0.1041,0.0991,0.0991,0.0991,0,0,0.1185,0.1168,0.1168,0.115,0.1137,0.1134,0.1107,0.1104,0.11,0.1068,0.1066,0.1052,0.1033,0.1035,0.1035,0.1025,0.1046,0.1034,0.1037,0.1037,0.1038,0.1043,0.1047,0.0992,0.0992,0.0992,0,0,0.1216,0.1203,0.1207,0.1195,0.1177,0.116,0.1161,0.1137,0.1127,0.1124,0.11,0.1095,0.1081,0.1069,0.1061,0.1087,0.1069,0.1085,0.1108,0.1111,0.1115,0.1118,0.1128,0.1132,0.1086,0.1086,0.1086,0,0.1241,0.1235,0.1211,0.1209,0.1202,0.1173,0.1177,0.1166,0.1145,0.1141,0.113,0.1112,0.1097,0.1096,0.1102,0.1097,0.1097,0.1088,0.1116,0.1119,0.1122,0.1131,0.1135,0.1089,0.1088,0.1088,0.1088,0,0.1266,0.1262,0.1267,0.1249,0.1242,0.1243,0.1219,0.1215,0.1199,0.1183,0.118,0.1162,0.1148,0.1146,0.1131,0.1143,0.1138,0.1122,0.1102,0.1129,0.1138,0.1141,0.1092,0.1091,0.109,0.109,0,0,0.1321,0.1289,0.1291,0.1283,0.1261,0.1257,0.1256,0.1244,0.1241,0.1227,0.1226,0.1215,0.12,0.1191,0.1173,0.1176,0.1199,0.1159,0.1158,0.1168,0.1212,0.1225,0.123,0.1186,0.1187,0.1187,0.1214,0,0.1348,0.1347,0.1325,0.1329,0.1325,0.1297,0.1297,0.1283,0.1268,0.1262,0.1245,0.1238,0.1218,0.1213,0.1214,0.1196,0.1207,0.1193,0.1185,0.1185,0.1192,0.1234,0.1247,0.1274,0.1217,0.1217,0.1218,0,0.1381,0.137,0.1375,0.1353,0.135,0.135,0.1337,0.1332,0.1315,0.1304,0.1294,0.1274,0.1271,0.1252,0.1248,0.1239,0.1234,0.1225,0.1225,0.1224,0.1204,0.1235,0.1281,0.1286,0.1222,0.1222,0.1222,0,0.1421,0.1408,0.1409,0.1402,0.1376,0.1377,0.1366,0.1349,0.1343,0.1331,0.1327,0.1314,0.1308,0.1299,0.1276,0.1264,0.1274,0.1253,0.1265,0.1266,0.1269,0.127,0.1317,0.1265,0.1265,0.1265,0.1264,0,0.1456,0.1459,0.1427,0.1428,0.1431,0.1405,0.1409,0.1395,0.138,0.1377,0.1352,0.1349,0.1319,0.1313,0.1295,0.1294,0.1291,0.1282,0.1278,0.1285,0.1287,0.1282,0.128,0.1266,0.1265,0.1265,0.1265,0,0.1502,0.148,0.148,0.1455,0.1449,0.1453,0.1431,0.1431,0.1414,0.1411,0.1408,0.1382,0.1374,0.135,0.1335,0.1323,0.1328,0.1319,0.1334,0.1332,0.1345,0.1345,0.1392,0.1397,0.1341,0.1342,0.1342,0,0.1526,0.1528,0.1504,0.1501,0.1491,0.1486,0.148,0.1454,0.1449,0.143,0.1432,0.1422,0.1412,0.14,0.1379,0.1368,0.1359,0.1376,0.1357,0.1364,0.136,0.1361,0.1361,0.1381,0.1381,0.1382,0.1382,0,0.157,0.156,0.1552,0.1542,0.1535,0.1525,0.1514,0.1512,0.1483,0.1478,0.147,0.1463,0.1448,0.1439,0.1424,0.1412,0.1393,0.1388,0.1391,0.1399,0.1409,0.1405,0.1347,0.1388,0.1387,0.1387,0.1387,0.1386,0.1607,0.1608,0.1591,0.1584,0.1573,0.1563,0.1561,0.1545,0.1538,0.1524,0.1509,0.1503,0.1485,0.1464,0.1453,0.1447,0.1437,0.144,0.1441,0.1443,0.1446,0.1409,0.1444,0.1444,0.1444,0.1444,0.1444,0,0.1651,0.1639,0.1633,0.1618,0.1612,0.1595,0.1581,0.1577,0.1572,0.1558,0.155,0.154,0.153,0.1509,0.1497,0.1497,0.1487,0.1494,0.1495,0.1492,0.1456,0.1456,0.1502,0.1502,0.1502,0.1502,0.1502,0.1502,0.1674,0.1675,0.1662,0.1658,0.1645,0.1639,0.1633,0.1623,0.1612,0.1603,0.1595,0.1582,0.1564,0.1551,0.1541,0.1535,0.1532,0.1543,0.1534,0.15,0.1495,0.149,0.1489,0.1542,0.1542,0.1571,0.1571,0.1571]}]]